| time (UTC) | temp F | wind direction | speed MPH | gust MPH | rain 1hr in | rain 24hr in | rain mn in | humidity % | barometer mb |
| 20260902171115 | 75 | 90 | 2.0 | 5.0 | 0.00 | 0.00 | 0.00 | 49 | 1014.6 |
| 20260902170613 | 75 | 103 | 2.0 | 5.0 | 0.00 | 0.00 | 0.00 | 51 | 1014.7 |
| 20260902170045 | 74 | 122 | 3.0 | 6.0 | 0.00 | 0.00 | 0.00 | 50 | 1014.7 |
| 20260902165543 | 74 | 103 | 2.0 | 6.0 | 0.00 | 0.00 | 0.00 | 50 | 1014.8 |
| 20260902165017 | 74 | 134 | 2.0 | 6.0 | 0.00 | 0.00 | 0.00 | 51 | 1014.8 |
| 20260902164450 | 73 | 127 | 2.0 | 6.0 | 0.00 | 0.00 | 0.00 | 54 | 1014.8 |
| 20260902163946 | 73 | 130 | 2.0 | 5.0 | 0.00 | 0.00 | 0.00 | 51 | 1014.9 |
| 20260902163715 | 73 | 186 | 2.0 | 5.0 | 0.00 | 0.00 | 0.00 | 53 | 1014.9 |
| 20260902162940 | 72 | 190 | 3.0 | 5.0 | 0.00 | 0.00 | 0.00 | 54 | 1015.0 |
| 20260902162437 | 71 | 180 | 3.0 | 5.0 | 0.00 | 0.00 | 0.00 | 55 | 1015.0 |
| 20260902161922 | 71 | 163 | 3.0 | 5.0 | 0.00 | 0.00 | 0.00 | 54 | 1015.1 |
| 20260902161420 | 71 | 165 | 3.0 | 6.0 | 0.00 | 0.00 | 0.00 | 57 | 1015.0 |
| 20260902161122 | 71 | 142 | 2.0 | 6.0 | 0.00 | 0.00 | 0.00 | 58 | 1015.0 |
| 20260902160350 | 70 | 163 | 3.0 | 6.0 | 0.00 | 0.00 | 0.00 | 59 | 1015.0 |
| 20260902160054 | 69 | 169 | 3.0 | 7.0 | 0.00 | 0.00 | 0.00 | 59 | 1014.9 |
| 20260902155319 | 69 | 180 | 3.0 | 7.0 | 0.00 | 0.00 | 0.00 | 60 | 1014.8 |
| 20260902154751 | 69 | 186 | 4.0 | 7.0 | 0.00 | 0.00 | 0.00 | 60 | 1014.9 |
| 20260902154227 | 69 | 189 | 4.0 | 7.0 | 0.00 | 0.00 | 0.00 | 60 | 1014.9 |
| 20260902153930 | 69 | 202 | 4.0 | 6.0 | 0.00 | 0.00 | 0.00 | 60 | 1014.7 |
| 20260902153157 | 70 | 159 | 3.0 | 6.0 | 0.00 | 0.00 | 0.00 | 58 | 1014.8 |
| 20260902152629 | 70 | 169 | 3.0 | 5.0 | 0.00 | 0.00 | 0.00 | 58 | 1014.7 |
| 20260902152127 | 70 | 177 | 3.0 | 6.0 | 0.00 | 0.00 | 0.00 | 59 | 1014.8 |
| 20260902151622 | 69 | 162 | 3.0 | 6.0 | 0.00 | 0.00 | 0.00 | 59 | 1014.7 |
| 20260902151349 | 69 | 175 | 3.0 | 6.0 | 0.00 | 0.00 | 0.00 | 59 | 1014.8 |
| 20260902150552 | 69 | 167 | 3.0 | 8.0 | 0.00 | 0.00 | 0.00 | 59 | 1014.7 |
| 20260902150321 | 69 | 167 | 4.0 | 8.0 | 0.00 | 0.00 | 0.00 | 60 | 1014.7 |
| 20260902145521 | 70 | 170 | 4.0 | 7.0 | 0.00 | 0.00 | 0.00 | 58 | 1014.7 |
| 20260902145021 | 70 | 161 | 3.0 | 6.0 | 0.00 | 0.00 | 0.00 | 58 | 1014.9 |
| 20260902144515 | 70 | 172 | 3.0 | 5.0 | 0.00 | 0.00 | 0.00 | 58 | 1014.9 |
| 20260902144017 | 71 | 175 | 2.0 | 4.0 | 0.00 | 0.00 | 0.00 | 58 | 1014.8 |
| 20260902143449 | 71 | 174 | 3.0 | 5.0 | 0.00 | 0.00 | 0.00 | 59 | 1014.9 |
| 20260902142947 | 71 | 176 | 3.0 | 6.0 | 0.00 | 0.00 | 0.00 | 59 | 1014.8 |
| 20260902142442 | 71 | 165 | 3.0 | 6.0 | 0.00 | 0.00 | 0.00 | 58 | 1014.9 |
| 20260902141916 | 72 | 147 | 1.0 | 3.0 | 0.00 | 0.00 | 0.00 | 58 | 1014.8 |
| 20260902141351 | 71 | 148 | 1.0 | 3.0 | 0.00 | 0.00 | 0.00 | 59 | 1014.8 |
| 20260902141056 | 71 | 151 | 1.0 | 3.0 | 0.00 | 0.00 | 0.00 | 60 | 1014.9 |
| 20260902140257 | 71 | 181 | 2.0 | 4.0 | 0.00 | 0.00 | 0.00 | 59 | 1015.0 |
| 20260902135754 | 71 | 182 | 2.0 | 5.0 | 0.00 | 0.00 | 0.00 | 59 | 1015.1 |
| 20260902135253 | 71 | 185 | 1.0 | 5.0 | 0.00 | 0.00 | 0.00 | 57 | 1015.1 |
| 20260902134725 | 72 | 186 | 1.0 | 3.0 | 0.00 | 0.00 | 0.00 | 58 | 1015.2 |
| 20260902134455 | 71 | 188 | 1.0 | 3.0 | 0.00 | 0.00 | 0.00 | 58 | 1015.2 |
| 20260902133721 | 71 | 202 | 0.0 | 0.0 | 0.00 | 0.00 | 0.00 | 59 | 1015.2 |
| 20260902133221 | 70 | 203 | 0.0 | 0.0 | 0.00 | 0.00 | 0.00 | 60 | 1015.2 |
| 20260902132717 | 69 | 203 | 0.0 | 0.0 | 0.00 | 0.00 | 0.00 | 60 | 1015.3 |
| 20260902132217 | 69 | 203 | 0.0 | 0.0 | 0.00 | 0.00 | 0.00 | 61 | 1015.3 |
| 20260902131655 | 68 | 203 | 0.0 | 0.0 | 0.00 | 0.00 | 0.00 | 62 | 1015.4 |
| 20260902131157 | 68 | 207 | 0.0 | 1.0 | 0.00 | 0.00 | 0.00 | 61 | 1015.3 |
| 20260902130908 | 68 | 215 | 1.0 | 2.0 | 0.00 | 0.00 | 0.00 | 62 | 1015.2 |
| 20260902130107 | 67 | 215 | 1.0 | 4.0 | 0.00 | 0.00 | 0.00 | 62 | 1015.2 |
| 20260902125553 | 67 | 217 | 0.0 | 4.0 | 0.00 | 0.00 | 0.00 | 63 | 1015.2 |
| 20260902125305 | 67 | 315 | 0.0 | 2.0 | 0.00 | 0.00 | 0.00 | 63 | 1015.1 |
| 20260902124530 | 66 | 315 | 0.0 | 2.0 | 0.00 | 0.00 | 0.00 | 64 | 1015.0 |
| 20260902124026 | 66 | 315 | 1.0 | 3.0 | 0.00 | 0.00 | 0.00 | 64 | 1015.0 |
| 20260902123529 | 65 | 315 | 1.0 | 3.0 | 0.00 | 0.00 | 0.00 | 64 | 1015.0 |
| 20260902123242 | 65 | 313 | 1.0 | 4.0 | 0.00 | 0.00 | 0.00 | 65 | 1014.9 |
| 20260902122512 | 64 | 312 | 2.0 | 4.0 | 0.00 | 0.00 | 0.00 | 66 | 1014.8 |
| 20260902122230 | 64 | 297 | 2.0 | 4.0 | 0.00 | 0.00 | 0.00 | 66 | 1014.7 |
| 20260902121434 | 64 | 281 | 2.0 | 4.0 | 0.00 | 0.00 | 0.00 | 66 | 1014.6 |
| 20260902120914 | 63 | 281 | 2.0 | 6.0 | 0.00 | 0.00 | 0.00 | 66 | 1014.6 |
| 20260902120358 | 63 | 285 | 3.0 | 6.0 | 0.00 | 0.00 | 0.00 | 66 | 1014.5 |
| 20260902120131 | 63 | 284 | 3.0 | 6.0 | 0.00 | 0.00 | 0.00 | 66 | 1014.5 |
| 20260902115604 | 63 | 292 | 3.0 | 8.0 | 0.00 | 0.00 | 0.00 | 66 | 1014.5 |
| 20260902114833 | 63 | 296 | 4.0 | 8.0 | 0.00 | 0.00 | 0.00 | 66 | 1014.4 |
| 20260902114332 | 63 | 312 | 3.0 | 8.0 | 0.00 | 0.00 | 0.00 | 67 | 1014.4 |
| 20260902113807 | 63 | 309 | 3.0 | 8.0 | 0.00 | 0.00 | 0.00 | 66 | 1014.5 |
| 20260902113308 | 63 | 284 | 3.0 | 8.0 | 0.00 | 0.00 | 0.00 | 66 | 1014.4 |
| 20260902112808 | 63 | 308 | 4.0 | 9.0 | 0.00 | 0.00 | 0.00 | 66 | 1014.3 |
| 20260902112250 | 64 | 290 | 4.0 | 9.0 | 0.00 | 0.00 | 0.00 | 66 | 1014.3 |
| 20260902111731 | 64 | 313 | 4.0 | 8.0 | 0.00 | 0.00 | 0.00 | 65 | 1014.3 |
| 20260902111209 | 64 | 301 | 4.0 | 8.0 | 0.00 | 0.00 | 0.00 | 65 | 1014.3 |
| 20260902110710 | 64 | 267 | 3.0 | 8.0 | 0.00 | 0.00 | 0.00 | 65 | 1014.3 |
| 20260902110439 | 64 | 294 | 3.0 | 7.0 | 0.00 | 0.00 | 0.00 | 65 | 1014.4 |
| 20260902105938 | 64 | 306 | 2.0 | 4.0 | 0.00 | 0.00 | 0.00 | 66 | 1014.3 |
| 20260902105433 | 63 | 300 | 1.0 | 4.0 | 0.00 | 0.00 | 0.00 | 67 | 1014.4 |
| 20260902104657 | 63 | 11 | 1.0 | 3.0 | 0.00 | 0.00 | 0.00 | 66 | 1014.4 |
| 20260902104155 | 64 | 12 | 0.0 | 3.0 | 0.00 | 0.00 | 0.00 | 66 | 1014.3 |
| 20260902103650 | 64 | 12 | 0.0 | 1.0 | 0.00 | 0.00 | 0.00 | 66 | 1014.4 |
| 20260902103145 | 64 | 12 | 0.0 | 0.0 | 0.00 | 0.00 | 0.00 | 66 | 1014.5 |
| 20260902102619 | 64 | 12 | 0.0 | 1.0 | 0.00 | 0.00 | 0.00 | 65 | 1014.5 |
| 20260902102053 | 65 | 12 | 0.0 | 2.0 | 0.00 | 0.00 | 0.00 | 65 | 1014.6 |
| 20260902101527 | 65 | 12 | 1.0 | 2.0 | 0.00 | 0.00 | 0.00 | 64 | 1014.8 |
| 20260902101025 | 65 | 12 | 1.0 | 2.0 | 0.00 | 0.00 | 0.00 | 64 | 1014.8 |
| 20260902100755 | 65 | 12 | 0.0 | 2.0 | 0.00 | 0.00 | 0.00 | 64 | 1014.8 |
| 20260902100020 | 65 | 12 | 0.0 | 2.0 | 0.00 | 0.00 | 0.00 | 63 | 1014.8 |
| 20260902095517 | 65 | 12 | 1.0 | 4.0 | 0.00 | 0.00 | 0.00 | 63 | 1014.9 |
| 20260902094952 | 65 | 11 | 1.0 | 4.0 | 0.00 | 0.00 | 0.00 | 63 | 1014.6 |
| 20260902094719 | 65 | 5 | 1.0 | 3.0 | 0.00 | 0.00 | 0.00 | 63 | 1014.7 |
| 20260902093945 | 65 | 269 | 0.0 | 3.0 | 0.00 | 0.00 | 0.00 | 62 | 1014.7 |
| 20260902093420 | 66 | 269 | 0.0 | 3.0 | 0.00 | 0.00 | 0.00 | 62 | 1014.6 |
| 20260902092853 | 66 | 265 | 0.0 | 2.0 | 0.00 | 0.00 | 0.00 | 61 | 1014.5 |
| 20260902092328 | 66 | 265 | 1.0 | 4.0 | 0.00 | 0.00 | 0.00 | 61 | 1014.5 |
| 20260902091801 | 66 | 265 | 1.0 | 4.0 | 0.00 | 0.00 | 0.00 | 60 | 1014.3 |
| 20260902091258 | 66 | 241 | 0.0 | 3.0 | 0.00 | 0.00 | 0.00 | 60 | 1014.2 |
| 20260902090756 | 66 | 241 | 1.0 | 3.0 | 0.00 | 0.00 | 0.00 | 60 | 1014.3 |
| 20260902090229 | 67 | 227 | 0.0 | 2.0 | 0.00 | 0.00 | 0.00 | 60 | 1014.1 |
| 20260902085710 | 67 | 226 | 0.0 | 7.0 | 0.00 | 0.00 | 0.00 | 60 | 1014.2 |
| 20260902085142 | 67 | 226 | 1.0 | 7.0 | 0.00 | 0.00 | 0.00 | 59 | 1014.1 |
| 20260902084640 | 67 | 226 | 3.0 | 9.0 | 0.00 | 0.00 | 0.00 | 59 | 1014.0 |
| 20260902084615 | 67 | 234 | 3.0 | 9.0 | 0.00 | 0.00 | 0.00 | 58 | 1013.9 |
| 20260902083610 | 68 | 311 | 5.0 | 10.0 | 0.00 | 0.00 | 0.00 | 58 | 1013.9 |
| 20260902083043 | 68 | 326 | 5.0 | 10.0 | 0.00 | 0.00 | 0.00 | 58 | 1013.9 |
| 20260902082540 | 68 | 311 | 5.0 | 10.0 | 0.00 | 0.00 | 0.00 | 57 | 1013.8 |
| 20260902082310 | 68 | 291 | 5.0 | 10.0 | 0.00 | 0.00 | 0.00 | 57 | 1014.0 |
| 20260902081510 | 68 | 302 | 5.0 | 10.0 | 0.00 | 0.00 | 0.00 | 57 | 1013.9 |
| 20260902081007 | 69 | 296 | 6.0 | 11.0 | 0.00 | 0.00 | 0.00 | 57 | 1013.9 |
| 20260902080441 | 69 | 312 | 5.0 | 11.0 | 0.00 | 0.00 | 0.00 | 56 | 1013.9 |
| 20260902075939 | 69 | 311 | 4.0 | 10.0 | 0.00 | 0.00 | 0.00 | 57 | 1014.1 |
| 20260902075433 | 69 | 321 | 4.0 | 10.0 | 0.00 | 0.00 | 0.00 | 57 | 1014.1 |
| 20260902074937 | 69 | 308 | 5.0 | 10.0 | 0.00 | 0.00 | 0.00 | 56 | 1014.2 |
| 20260902074408 | 69 | 311 | 5.0 | 10.0 | 0.00 | 0.00 | 0.00 | 56 | 1014.0 |
| 20260902073906 | 69 | 306 | 5.0 | 10.0 | 0.00 | 0.00 | 0.00 | 56 | 1013.9 |
| 20260902073404 | 69 | 306 | 5.0 | 11.0 | 0.00 | 0.00 | 0.00 | 56 | 1014.0 |
| 20260902072842 | 69 | 314 | 5.0 | 11.0 | 0.00 | 0.00 | 0.00 | 56 | 1013.9 |
| 20260902072309 | 69 | 311 | 5.0 | 10.0 | 0.00 | 0.00 | 0.00 | 56 | 1014.1 |
| 20260902072034 | 69 | 313 | 5.0 | 10.0 | 0.00 | 0.00 | 0.00 | 56 | 1014.2 |
| 20260902071506 | 69 | 327 | 4.0 | 9.0 | 0.00 | 0.00 | 0.00 | 55 | 1014.2 |
| 20260902070708 | 69 | 306 | 4.0 | 9.0 | 0.00 | 0.00 | 0.00 | 55 | 1014.3 |
| 20260902070436 | 69 | 311 | 5.0 | 10.0 | 0.00 | 0.00 | 0.00 | 55 | 1014.4 |
| 20260902065640 | 69 | 324 | 4.0 | 9.0 | 0.00 | 0.00 | 0.00 | 55 | 1014.3 |
| 20260902065112 | 69 | 329 | 3.0 | 8.0 | 0.00 | 0.00 | 0.00 | 55 | 1014.3 |
| 20260902064609 | 69 | 311 | 3.0 | 8.0 | 0.00 | 0.00 | 0.00 | 55 | 1014.3 |
| 20260902064043 | 69 | 335 | 3.0 | 8.0 | 0.00 | 0.00 | 0.00 | 55 | 1014.4 |
| 20260902063541 | 69 | 347 | 3.0 | 7.0 | 0.00 | 0.00 | 0.00 | 55 | 1014.2 |
| 20260902063038 | 69 | 308 | 3.0 | 8.0 | 0.00 | 0.00 | 0.00 | 55 | 1014.2 |
| 20260902062511 | 69 | 338 | 4.0 | 8.0 | 0.00 | 0.00 | 0.00 | 54 | 1014.4 |
| 20260902062008 | 69 | 291 | 4.0 | 9.0 | 0.00 | 0.00 | 0.00 | 54 | 1014.2 |
| 20260902061442 | 70 | 314 | 4.0 | 8.0 | 0.00 | 0.00 | 0.00 | 54 | 1014.3 |
| 20260902060916 | 70 | 296 | 4.0 | 8.0 | 0.00 | 0.00 | 0.00 | 54 | 1014.2 |
| 20260902060622 | 70 | 284 | 4.0 | 8.0 | 0.00 | 0.00 | 0.00 | 53 | 1014.1 |
| 20260902055823 | 70 | 311 | 3.0 | 8.0 | 0.00 | 0.00 | 0.00 | 53 | 1014.0 |
| 20260902055318 | 70 | 340 | 3.0 | 8.0 | 0.00 | 0.00 | 0.00 | 53 | 1014.2 |
| 20260902054755 | 70 | 327 | 3.0 | 9.0 | 0.00 | 0.00 | 0.00 | 53 | 1014.3 |
| 20260902054228 | 70 | 296 | 3.0 | 8.0 | 0.00 | 0.00 | 0.00 | 53 | 1014.4 |
| 20260902053722 | 70 | 346 | 3.0 | 8.0 | 0.00 | 0.00 | 0.00 | 53 | 1014.4 |
| 20260902053158 | 70 | 355 | 3.0 | 8.0 | 0.00 | 0.00 | 0.00 | 53 | 1014.4 |
| 20260902052630 | 70 | 321 | 3.0 | 6.0 | 0.00 | 0.00 | 0.00 | 53 | 1014.5 |
| 20260902052343 | 70 | 327 | 3.0 | 7.0 | 0.00 | 0.00 | 0.00 | 53 | 1014.4 |
| 20260902051841 | 70 | 273 | 2.0 | 7.0 | 0.00 | 0.00 | 0.00 | 53 | 1014.5 |
| 20260902051112 | 70 | 5 | 1.0 | 4.0 | 0.00 | 0.00 | 0.00 | 53 | 1014.6 |
| 20260902050613 | 70 | 300 | 1.0 | 4.0 | 0.00 | 0.00 | 0.00 | 53 | 1014.6 |
| 20260902050108 | 70 | 341 | 2.0 | 5.0 | 0.00 | 0.00 | 0.00 | 53 | 1014.6 |
| 20260902045543 | 70 | 284 | 2.0 | 5.0 | 0.00 | 0.00 | 0.00 | 53 | 1014.7 |
| 20260902045518 | 70 | 290 | 2.0 | 4.0 | 0.00 | 0.00 | 0.00 | 53 | 1014.7 |
| 20260902044511 | 70 | 279 | 2.0 | 6.0 | 0.00 | 0.00 | 0.00 | 53 | 1014.6 |
| 20260902043941 | 70 | 309 | 3.0 | 7.0 | 0.00 | 0.00 | 0.00 | 52 | 1014.6 |
| 20260902043438 | 70 | 277 | 3.0 | 7.0 | 0.00 | 0.00 | 0.00 | 53 | 1014.7 |
| 20260902042936 | 70 | 299 | 2.0 | 8.0 | 0.00 | 0.00 | 0.00 | 52 | 1014.8 |
| 20260902042406 | 70 | 304 | 2.0 | 8.0 | 0.00 | 0.00 | 0.00 | 52 | 1014.7 |
| 20260902041832 | 70 | 250 | 2.0 | 5.0 | 0.00 | 0.00 | 0.00 | 53 | 1014.7 |
| 20260902041305 | 70 | 339 | 1.0 | 6.0 | 0.00 | 0.00 | 0.00 | 52 | 1014.6 |
| 20260902040802 | 70 | 263 | 2.0 | 6.0 | 0.00 | 0.00 | 0.00 | 52 | 1014.5 |
| 20260902040245 | 70 | 265 | 2.0 | 6.0 | 0.00 | 0.00 | 0.00 | 52 | 1014.5 |
| 20260902035745 | 70 | 276 | 2.0 | 6.0 | 0.00 | 0.00 | 0.00 | 52 | 1014.4 |
| 20260902035242 | 70 | 295 | 2.0 | 7.0 | 0.00 | 0.00 | 0.00 | 52 | 1014.3 |
| 20260902034744 | 70 | 244 | 2.0 | 7.0 | 0.00 | 0.00 | 0.00 | 52 | 1014.3 |
| 20260902034510 | 71 | 262 | 2.0 | 7.0 | 0.00 | 0.00 | 0.00 | 52 | 1014.4 |
| 20260902034010 | 71 | 315 | 3.0 | 7.0 | 0.00 | 0.00 | 0.00 | 52 | 1014.4 |
| 20260902033212 | 71 | 308 | 3.0 | 9.0 | 0.00 | 0.00 | 0.00 | 52 | 1014.4 |
| 20260902032707 | 71 | 264 | 2.0 | 7.0 | 0.00 | 0.00 | 0.00 | 52 | 1014.3 |
| 20260902032204 | 71 | 300 | 2.0 | 7.0 | 0.00 | 0.00 | 0.00 | 52 | 1014.2 |
| 20260902031934 | 71 | 289 | 1.0 | 6.0 | 0.00 | 0.00 | 0.00 | 53 | 1014.3 |
| 20260902031201 | 71 | 263 | 1.0 | 6.0 | 0.00 | 0.00 | 0.00 | 52 | 1014.4 |
| 20260902030632 | 71 | 252 | 1.0 | 5.0 | 0.00 | 0.00 | 0.00 | 52 | 1014.4 |
| 20260902030131 | 71 | 269 | 1.0 | 5.0 | 0.00 | 0.00 | 0.00 | 53 | 1014.4 |
| 20260902025606 | 71 | 227 | 1.0 | 4.0 | 0.00 | 0.00 | 0.00 | 53 | 1014.3 |
| 20260902025038 | 72 | 289 | 1.0 | 4.0 | 0.00 | 0.00 | 0.00 | 53 | 1014.3 |
| 20260902024537 | 72 | 271 | 2.0 | 6.0 | 0.00 | 0.00 | 0.00 | 53 | 1014.2 |
| 20260902024012 | 72 | 263 | 3.0 | 9.0 | 0.00 | 0.00 | 0.00 | 53 | 1014.2 |
| 20260902023737 | 72 | 290 | 2.0 | 9.0 | 0.00 | 0.00 | 0.00 | 53 | 1014.2 |
| 20260902023002 | 72 | 251 | 3.0 | 8.0 | 0.00 | 0.00 | 0.00 | 53 | 1014.2 |
| 20260902022435 | 72 | 253 | 2.0 | 7.0 | 0.00 | 0.00 | 0.00 | 53 | 1014.3 |
| 20260902021911 | 73 | 269 | 3.0 | 9.0 | 0.00 | 0.00 | 0.00 | 53 | 1014.4 |
| 20260902021406 | 72 | 317 | 3.0 | 9.0 | 0.00 | 0.00 | 0.00 | 53 | 1014.3 |
| 20260902020901 | 72 | 221 | 2.0 | 7.0 | 0.00 | 0.00 | 0.00 | 54 | 1014.4 |
| 20260902020402 | 72 | 251 | 2.0 | 6.0 | 0.00 | 0.00 | 0.00 | 54 | 1014.3 |
| 20260902015857 | 72 | 263 | 2.0 | 6.0 | 0.00 | 0.00 | 0.00 | 54 | 1014.2 |
| 20260902015356 | 72 | 232 | 1.0 | 3.0 | 0.00 | 0.00 | 0.00 | 54 | 1014.2 |
| 20260902014856 | 72 | 285 | 1.0 | 3.0 | 0.00 | 0.00 | 0.00 | 54 | 1014.2 |
| 20260902014331 | 72 | 232 | 1.0 | 3.0 | 0.00 | 0.00 | 0.00 | 54 | 1014.1 |
| 20260902013832 | 72 | 254 | 1.0 | 3.0 | 0.00 | 0.00 | 0.00 | 53 | 1014.2 |
| 20260902013312 | 73 | 252 | 1.0 | 3.0 | 0.00 | 0.00 | 0.00 | 53 | 1014.0 |
| 20260902013024 | 73 | 247 | 1.0 | 5.0 | 0.00 | 0.00 | 0.00 | 52 | 1014.0 |
| 20260902012252 | 73 | 247 | 2.0 | 5.0 | 0.00 | 0.00 | 0.00 | 52 | 1014.0 |
| 20260902011750 | 73 | 264 | 2.0 | 4.0 | 0.00 | 0.00 | 0.00 | 52 | 1013.9 |
| 20260902011248 | 73 | 265 | 2.0 | 4.0 | 0.00 | 0.00 | 0.00 | 51 | 1013.9 |
| 20260902010752 | 73 | 267 | 2.0 | 4.0 | 0.00 | 0.00 | 0.00 | 51 | 1013.8 |
| 20260902010503 | 74 | 271 | 2.0 | 4.0 | 0.00 | 0.00 | 0.00 | 50 | 1013.7 |
| 20260902005729 | 74 | 271 | 2.0 | 4.0 | 0.00 | 0.00 | 0.00 | 50 | 1013.7 |
| 20260902005214 | 74 | 280 | 2.0 | 4.0 | 0.00 | 0.00 | 0.00 | 49 | 1013.6 |
| 20260902004646 | 74 | 280 | 3.0 | 4.0 | 0.00 | 0.00 | 0.00 | 49 | 1013.6 |
| 20260902004132 | 74 | 279 | 3.0 | 4.0 | 0.00 | 0.00 | 0.00 | 48 | 1013.6 |
| 20260902003616 | 75 | 279 | 2.0 | 4.0 | 0.00 | 0.00 | 0.00 | 48 | 1013.6 |
| 20260902003114 | 76 | 265 | 1.0 | 4.0 | 0.00 | 0.00 | 0.00 | 48 | 1013.6 |
| 20260902002614 | 76 | 259 | 2.0 | 3.0 | 0.00 | 0.00 | 0.00 | 47 | 1013.5 |
| 20260902002054 | 76 | 258 | 2.0 | 4.0 | 0.00 | 0.00 | 0.00 | 45 | 1013.5 |
| 20260902001553 | 77 | 259 | 2.0 | 4.0 | 0.00 | 0.00 | 0.00 | 45 | 1013.4 |
| 20260902001051 | 77 | 250 | 1.0 | 3.0 | 0.00 | 0.00 | 0.00 | 44 | 1013.2 |
| 20260902000552 | 78 | 250 | 1.0 | 4.0 | 0.00 | 0.00 | 0.00 | 44 | 1013.1 |
| 20260902000025 | 78 | 250 | 1.0 | 4.0 | 0.00 | 0.00 | 0.00 | 43 | 1013.2 |
| 20260901235500 | 78 | 235 | 1.0 | 3.0 | 0.00 | 0.00 | 0.00 | 42 | 1013.2 |
| 20260901235000 | 79 | 235 | 1.0 | 4.0 | 0.00 | 0.00 | 0.00 | 42 | 1013.3 |
| 20260901234731 | 79 | 234 | 2.0 | 8.0 | 0.00 | 0.00 | 0.00 | 41 | 1013.4 |
| 20260901233935 | 79 | 230 | 2.0 | 8.0 | 0.00 | 0.00 | 0.00 | 40 | 1013.3 |
| 20260901233411 | 79 | 241 | 2.0 | 5.0 | 0.00 | 0.00 | 0.00 | 39 | 1013.2 |
| 20260901233136 | 79 | 237 | 2.0 | 7.0 | 0.00 | 0.00 | 0.00 | 40 | 1013.2 |
| 20260901232402 | 80 | 242 | 3.0 | 7.0 | 0.00 | 0.00 | 0.00 | 39 | 1013.2 |
| 20260901231837 | 80 | 220 | 3.0 | 8.0 | 0.00 | 0.00 | 0.00 | 38 | 1013.2 |
| 20260901231309 | 80 | 245 | 3.0 | 9.0 | 0.00 | 0.00 | 0.00 | 38 | 1013.2 |
| 20260901230809 | 80 | 285 | 3.0 | 9.0 | 0.00 | 0.00 | 0.00 | 38 | 1013.2 |
| 20260901230241 | 80 | 225 | 4.0 | 9.0 | 0.00 | 0.00 | 0.00 | 37 | 1013.1 |
| 20260901225713 | 80 | 252 | 5.0 | 9.0 | 0.00 | 0.00 | 0.00 | 37 | 1013.0 |
| 20260901225210 | 81 | 230 | 5.0 | 10.0 | 0.00 | 0.00 | 0.00 | 37 | 1013.0 |
| 20260901224645 | 81 | 218 | 4.0 | 10.0 | 0.00 | 0.00 | 0.00 | 36 | 1012.9 |
| 20260901224120 | 82 | 263 | 3.0 | 7.0 | 0.00 | 0.00 | 0.00 | 36 | 1012.9 |
| 20260901223621 | 82 | 215 | 2.0 | 7.0 | 0.00 | 0.00 | 0.00 | 36 | 1012.9 |
| 20260901223119 | 81 | 281 | 2.0 | 7.0 | 0.00 | 0.00 | 0.00 | 37 | 1012.9 |
| 20260901222619 | 81 | 250 | 2.0 | 8.0 | 0.00 | 0.00 | 0.00 | 37 | 1012.9 |
| 20260901222349 | 80 | 227 | 3.0 | 8.0 | 0.00 | 0.00 | 0.00 | 37 | 1013.0 |
| 20260901221615 | 80 | 235 | 3.0 | 10.0 | 0.00 | 0.00 | 0.00 | 36 | 1012.9 |
| 20260901221047 | 80 | 230 | 4.0 | 10.0 | 0.00 | 0.00 | 0.00 | 36 | 1013.0 |
| 20260901220544 | 80 | 284 | 5.0 | 11.0 | 0.00 | 0.00 | 0.00 | 35 | 1012.9 |
| 20260901220021 | 81 | 256 | 5.0 | 11.0 | 0.00 | 0.00 | 0.00 | 34 | 1012.8 |
| 20260901215505 | 81 | 207 | 4.0 | 12.0 | 0.00 | 0.00 | 0.00 | 34 | 1012.8 |
| 20260901215003 | 81 | 243 | 5.0 | 12.0 | 0.00 | 0.00 | 0.00 | 33 | 1012.8 |
| 20260901214459 | 82 | 217 | 5.0 | 14.0 | 0.00 | 0.00 | 0.00 | 33 | 1012.8 |
| 20260901213957 | 82 | 229 | 6.0 | 14.0 | 0.00 | 0.00 | 0.00 | 33 | 1012.8 |
| 20260901213431 | 82 | 217 | 6.0 | 14.0 | 0.00 | 0.00 | 0.00 | 33 | 1012.8 |
| 20260901212904 | 82 | 291 | 5.0 | 11.0 | 0.00 | 0.00 | 0.00 | 32 | 1012.8 |
| 20260901212359 | 82 | 174 | 5.0 | 11.0 | 0.00 | 0.00 | 0.00 | 31 | 1012.8 |
| 20260901211856 | 83 | 253 | 6.0 | 15.0 | 0.00 | 0.00 | 0.00 | 31 | 1012.8 |
| 20260901211353 | 83 | 340 | 6.0 | 21.0 | 0.00 | 0.00 | 0.00 | 32 | 1012.9 |
| 20260901210825 | 83 | 311 | 6.0 | 14.0 | 0.00 | 0.00 | 0.00 | 31 | 1012.8 |
| 20260901210300 | 83 | 210 | 5.0 | 14.0 | 0.00 | 0.00 | 0.00 | 30 | 1012.8 |
| 20260901205732 | 83 | 211 | 4.0 | 11.0 | 0.00 | 0.00 | 0.00 | 31 | 1012.8 |
| 20260901205228 | 83 | 189 | 3.0 | 11.0 | 0.00 | 0.00 | 0.00 | 31 | 1012.9 |
| 20260901204702 | 82 | 342 | 4.0 | 9.0 | 0.00 | 0.00 | 0.00 | 31 | 1012.9 |
| 20260901204159 | 81 | 241 | 4.0 | 14.0 | 0.00 | 0.00 | 0.00 | 31 | 1012.9 |
| 20260901203906 | 81 | 270 | 4.0 | 14.0 | 0.00 | 0.00 | 0.00 | 31 | 1012.9 |
| 20260901203129 | 82 | 219 | 5.0 | 14.0 | 0.00 | 0.00 | 0.00 | 30 | 1012.9 |
| 20260901202629 | 82 | 300 | 6.0 | 14.0 | 0.00 | 0.00 | 0.00 | 30 | 1012.9 |
| 20260901202059 | 83 | 245 | 5.0 | 14.0 | 0.00 | 0.00 | 0.00 | 29 | 1013.1 |
| 20260901201533 | 83 | 300 | 7.0 | 16.0 | 0.00 | 0.00 | 0.00 | 29 | 1013.0 |
| 20260901201007 | 83 | 256 | 10.0 | 20.0 | 0.00 | 0.00 | 0.00 | 30 | 1013.0 |
| 20260901200439 | 82 | 220 | 9.0 | 20.0 | 0.00 | 0.00 | 0.00 | 29 | 1013.1 |
| 20260901200208 | 83 | 199 | 6.0 | 15.0 | 0.00 | 0.00 | 0.00 | 29 | 1013.0 |
| 20260901195409 | 83 | 266 | 6.0 | 15.0 | 0.00 | 0.00 | 0.00 | 31 | 1013.1 |
| 20260901194907 | 83 | 265 | 8.0 | 17.0 | 0.00 | 0.00 | 0.00 | 29 | 1013.1 |
| 20260901194338 | 83 | 228 | 8.0 | 17.0 | 0.00 | 0.00 | 0.00 | 29 | 1013.1 |
| 20260901193836 | 83 | 220 | 7.0 | 16.0 | 0.00 | 0.00 | 0.00 | 29 | 1013.1 |
| 20260901193338 | 83 | 232 | 6.0 | 14.0 | 0.00 | 0.00 | 0.00 | 31 | 1013.2 |
| 20260901192814 | 83 | 246 | 5.0 | 15.0 | 0.00 | 0.00 | 0.00 | 30 | 1013.1 |
| 20260901192517 | 82 | 288 | 6.0 | 15.0 | 0.00 | 0.00 | 0.00 | 31 | 1013.2 |
| 20260901191743 | 82 | 254 | 7.0 | 16.0 | 0.00 | 0.00 | 0.00 | 30 | 1013.2 |
| 20260901191511 | 83 | 323 | 6.0 | 16.0 | 0.00 | 0.00 | 0.00 | 29 | 1013.1 |
| 20260901190735 | 83 | 279 | 6.0 | 17.0 | 0.00 | 0.00 | 0.00 | 30 | 1013.2 |
| 20260901190233 | 83 | 298 | 8.0 | 20.0 | 0.00 | 0.00 | 0.00 | 31 | 1013.1 |
| 20260901185708 | 82 | 273 | 9.0 | 20.0 | 0.00 | 0.00 | 0.00 | 33 | 1013.1 |
| 20260901185642 | 83 | 181 | 8.0 | 18.0 | 0.00 | 0.00 | 0.00 | 32 | 1013.2 |
| 20260901184616 | 83 | 239 | 6.0 | 13.0 | 0.00 | 0.00 | 0.00 | 31 | 1013.2 |
| 20260901184112 | 82 | 240 | 6.0 | 15.0 | 0.00 | 0.00 | 0.00 | 34 | 1013.3 |
| 20260901183608 | 82 | 271 | 7.0 | 15.0 | 0.00 | 0.00 | 0.00 | 33 | 1013.4 |
| 20260901183041 | 82 | 219 | 7.0 | 13.0 | 0.00 | 0.00 | 0.00 | 34 | 1013.4 |
| 20260901182811 | 82 | 265 | 6.0 | 16.0 | 0.00 | 0.00 | 0.00 | 34 | 1013.5 |
| 20260901182036 | 82 | 299 | 5.0 | 16.0 | 0.00 | 0.00 | 0.00 | 33 | 1013.6 |
| 20260901181534 | 82 | 288 | 6.0 | 16.0 | 0.00 | 0.00 | 0.00 | 33 | 1013.6 |
| 20260901181030 | 81 | 261 | 7.0 | 16.0 | 0.00 | 0.00 | 0.00 | 32 | 1013.7 |
| 20260901180527 | 81 | 286 | 6.0 | 21.0 | 0.00 | 0.00 | 0.00 | 32 | 1013.6 |
| 20260901180024 | 81 | 191 | 7.0 | 21.0 | 0.00 | 0.00 | 0.00 | 36 | 1013.7 |
| 20260901175753 | 81 | 286 | 8.0 | 22.0 | 0.00 | 0.00 | 0.00 | 33 | 1013.9 |
| 20260901175244 | 80 | 288 | 8.0 | 22.0 | 0.00 | 0.00 | 0.00 | 33 | 1014.0 |
| 20260901174516 | 81 | 229 | 8.0 | 19.0 | 0.00 | 0.00 | 0.00 | 35 | 1014.0 |
| 20260901174013 | 81 | 290 | 6.0 | 15.0 | 0.00 | 0.00 | 0.00 | 35 | 1014.1 |
| 20260901173511 | 81 | 261 | 5.0 | 14.0 | 0.00 | 0.00 | 0.00 | 36 | 1014.1 |
| 20260901172945 | 81 | 229 | 5.0 | 13.0 | 0.00 | 0.00 | 0.00 | 36 | 1014.2 |
| 20260901172447 | 80 | 302 | 7.0 | 13.0 | 0.00 | 0.00 | 0.00 | 36 | 1014.3 |
| 20260901171921 | 80 | 284 | 7.0 | 16.0 | 0.00 | 0.00 | 0.00 | 36 | 1014.3 |
| 20260901171357 | 80 | 296 | 6.0 | 14.0 | 0.00 | 0.00 | 0.00 | 36 | 1014.3 |